Meath Environmental Platform

Observations for Trim Patrick St

Time AQI Temp °C Hum % Pres Pa CO μg/m³ H₂S μg/m³ NO μg/m³ NO₂ μg/m³ O₃ μg/m³ SO₂ μg/m³ PM1 μg/m³ PM2.5 μg/m³ PM10 μg/m³
Saturday 1 August 2026
13:48 2 25.3 36 68,943 0 7.73 1.57 27.08 72.55 8.6 2.86 8.07 8.88
13:47 2 25.3 37 68,935 0 1.83 1.67 11.61 79.64 8.57 2.86 8.83 9.71
13:46 2 25.2 37 68,928 0 3.8 1.59 14.1 76.46 8.4 2.86 8.05 8.86
13:45 2 25.2 37 68,914 0 5.74 1.98 10.39 70.48 9.04 2 8.05 8.86
13:44 2 25.2 37 68,930 0 6.96 1.86 15.28 82.15 9.03 2 8.02 8.82
13:43 2 25.1 37 68,949 0 8.99 1.84 16.88 79.31 9.02 2.86 9.61 10.57
13:42 2 25 37 68,949 0 7.43 1.9 9.84 80.47 8.73 2 7.23 7.96
13:41 2 25 37 68,947 0 9.13 1.77 16.74 76.45 8.97 2.86 8.79 9.67
13:40 2 25 37 68,947 0 7.37 1.72 15.25 80.71 8.46 2 8.02 8.83
13:39 2 24.9 38 68,943 0 7.75 1.63 11.54 87.79 9.59 2.86 9.55 10.51
13:38 2 24.9 38 68,912 0 10.38 1.64 12.94 88.69 10.02 2.86 8.77 9.65
13:37 2 24.9 37 68,932 0 7.35 1.89 11.54 78.47 9.2 2.86 8.02 8.83
13:36 2 24.9 37 68,926 0 9.53 1.75 12.65 94.45 9.53 2 8.02 8.82
13:35 2 24.9 37 68,920 0 5.49 1.66 9.26 78.73 9.15 2.86 8.81 9.7
13:34 2 24.9 38 68,939 0 6.9 1.73 11.53 79.36 8.95 3.71 10.35 11.39
13:33 2 24.8 37 68,937 0 10.52 1.59 14.86 84.47 9.26 3.71 10.37 11.4
13:31 2 24.8 38 68,922 0 13.57 1.37 11.6 88.94 10.69 9.71 20.6 22.66
13:30 2 24.8 37 68,941 0 12.11 1.35 19.73 80.88 9.42 10.57 19.89 21.87
13:29 2 24.8 38 68,939 0 12.38 1.34 11 93.81 10.38 11.43 19.83 21.81
13:28 2 24.8 37 68,906 0 13.76 1.46 11.97 92.45 10.13 11.43 20.72 22.79